period_start,C,m1,H,J0,J1,J2,J3,J4,J5,JA,JB,JC,JD,JJ,JK,JN,#
2018-03-20 00:01:06,0.11,4.15,0.00,13.73,16.94,20.33,14.53,48.59,1024.95,2065.00,2094.04,2236.26,2522.94,599.68,620.00,52.30,0000 0000 0000 0000 000000
2018-03-20 00:06:08,0.10,4.15,0.00,13.76,16.95,20.30,14.47,48.55,1024.96,2065.00,2092.88,2235.34,2521.90,599.59,619.90,52.35,0000 0000 0000 0000 000000
2018-03-20 00:11:09,0.12,4.16,0.00,13.78,16.97,20.30,14.52,48.55,1024.93,2065.00,2091.51,2234.37,2520.80,600.10,620.33,52.40,0000 0000 0000 0000 000000
2018-03-20 00:16:10,0.10,4.16,0.00,13.82,16.97,20.34,14.56,48.46,1024.93,2065.00,2090.42,2233.49,2519.70,600.13,620.31,52.45,0000 0000 0000 0000 000000
2018-03-20 00:21:12,0.12,4.17,0.00,13.85,16.99,20.36,14.49,48.52,1024.96,2064.99,2088.86,2232.48,2518.62,599.67,619.76,52.50,0000 0000 0000 0000 000000
2018-03-20 00:26:13,0.09,4.17,0.00,13.89,17.00,20.31,14.50,48.44,1024.98,2064.99,2087.77,2231.62,2517.54,599.99,619.95,52.55,0000 0000 0000 0000 000000
2018-03-20 00:31:14,0.10,4.18,0.00,13.91,17.02,20.32,14.52,48.59,1024.95,2064.98,2086.58,2230.67,2516.53,600.02,619.97,52.60,0000 0000 0000 0000 000000
2018-03-20 00:36:16,0.11,4.19,0.00,13.93,17.03,20.37,14.55,48.62,1024.98,2064.98,2085.03,2229.71,2515.57,600.25,620.24,52.65,0000 0000 0000 0000 000000
2018-03-20 00:41:17,0.08,4.19,0.00,13.97,17.05,20.36,14.57,48.58,1025.06,2064.99,2083.90,2228.90,2514.60,599.98,619.93,52.70,0000 0000 0000 0000 000000
2018-03-20 00:46:18,0.09,4.20,0.00,13.99,17.07,20.35,14.47,48.40,1024.97,2064.99,2083.14,2228.04,2513.48,599.96,619.78,52.75,0000 0000 0000 0000 000000
2018-03-20 00:51:20,0.09,4.20,0.00,14.01,17.09,20.38,14.47,48.36,1024.94,2064.96,2082.18,2227.14,2512.37,599.94,619.65,52.80,0000 0000 0000 0000 000000
2018-03-20 00:56:21,0.10,4.21,0.00,14.03,17.11,20.41,14.50,48.33,1024.95,2064.89,2080.88,2226.19,2511.26,599.98,619.65,52.85,0000 0000 0000 0000 000000
2018-03-20 01:01:22,0.05,4.21,0.00,14.06,17.12,20.44,14.56,48.39,1024.95,2064.42,2079.59,2225.18,2510.06,600.03,619.65,52.90,0000 0000 0000 0000 000000
2018-03-20 01:06:23,0.09,4.21,0.00,14.10,17.14,20.45,14.57,48.29,1025.02,2064.15,2078.39,2224.21,2508.95,599.80,619.35,52.96,0000 0000 0000 0000 000000
2018-03-20 01:11:25,0.10,4.22,0.00,14.15,17.17,20.47,14.44,48.23,1025.17,2064.06,2077.20,2223.33,2507.87,599.86,619.47,53.01,0000 0000 0000 0000 000000
2018-03-20 01:16:26,0.10,4.22,0.00,14.18,17.20,20.50,14.57,48.29,1025.25,2064.04,2076.05,2222.38,2506.78,600.10,619.64,53.06,0000 0000 0000 0000 000000
2018-03-20 01:21:27,0.12,4.23,0.00,14.22,17.23,20.50,14.47,48.44,1025.35,2064.02,2074.79,2221.50,2505.68,599.78,619.25,53.11,0000 0000 0000 0000 000000
2018-03-20 01:26:28,0.12,4.24,0.00,14.26,17.26,20.54,14.56,48.52,1025.31,2064.00,2073.37,2220.44,2504.53,600.06,619.46,53.16,0000 0000 0000 0000 000000
2018-03-20 01:31:29,0.13,4.24,0.00,14.30,17.29,20.57,14.46,48.54,1025.31,2064.00,2071.53,2219.37,2503.49,599.93,619.25,53.21,0000 0000 0000 0000 000000
2018-03-20 01:36:30,0.10,4.25,0.00,14.34,17.32,20.61,14.51,48.57,1025.29,2064.00,2070.25,2218.42,2502.43,599.93,619.15,53.26,0000 0000 0000 0000 000000
2018-03-20 01:41:32,0.10,4.25,0.00,14.37,17.35,20.64,14.52,48.58,1025.36,2063.99,2069.21,2217.48,2501.26,599.91,619.02,53.31,0000 0000 0000 0000 000000
2018-03-20 01:46:34,0.10,4.26,0.00,14.41,17.38,20.68,14.45,48.55,1025.40,2063.98,2067.90,2216.53,2500.22,599.68,618.81,53.36,0000 0000 0000 0000 000000
2018-03-20 01:51:35,0.06,4.26,0.00,14.44,17.41,20.70,14.51,48.48,1025.40,2063.81,2067.15,2215.63,2499.03,599.91,618.98,53.41,0000 0000 0000 0000 000000
2018-03-20 01:56:36,0.05,4.27,0.00,14.48,17.44,20.74,14.50,48.38,1025.40,2063.30,2066.12,2214.64,2497.78,599.95,618.95,53.46,0000 0000 0000 0000 000000
2018-03-20 02:01:38,0.11,4.27,0.00,14.52,17.48,20.76,14.58,48.32,1025.41,2063.02,2064.68,2213.66,2496.69,599.99,619.02,53.51,0000 0000 0000 0000 000000
2018-03-20 02:06:39,0.11,4.28,0.00,14.55,17.51,20.81,14.48,48.31,1025.41,2063.00,2063.41,2212.67,2495.59,599.91,618.85,53.56,0000 0000 0000 0000 000000
2018-03-20 02:11:40,0.12,4.28,0.00,14.59,17.54,20.83,14.55,48.48,1025.41,2063.00,2062.07,2211.62,2494.51,600.41,619.21,53.61,0000 0000 0000 0000 000000
2018-03-20 02:16:41,0.10,4.29,0.00,14.64,17.58,20.87,14.48,48.51,1025.41,2062.99,2060.73,2210.68,2493.44,600.18,618.85,53.66,0000 0000 0000 0000 000000
2018-03-20 02:21:42,0.11,4.29,0.00,14.68,17.62,20.90,14.46,48.48,1025.41,2062.97,2059.46,2209.71,2492.37,599.87,618.46,53.71,0000 0000 0000 0000 000000
2018-03-20 02:26:43,0.13,4.30,0.00,14.74,17.65,20.93,14.54,48.52,1025.41,2062.96,2057.89,2208.64,2491.11,600.27,618.60,53.76,0000 0000 0000 0000 000000
2018-03-20 02:31:45,0.06,4.30,0.00,14.79,17.70,20.96,14.49,48.47,1025.41,2062.51,2056.50,2207.49,2489.75,600.00,618.33,53.81,0000 0000 0000 0000 000000
2018-03-20 02:36:47,0.09,4.31,0.00,14.83,17.74,20.99,14.42,48.54,1025.41,2062.10,2055.18,2206.39,2488.54,599.95,618.20,53.86,0000 0000 0000 0000 000000
2018-03-20 02:41:48,0.12,4.31,0.00,14.87,17.78,21.03,14.45,48.60,1025.42,2062.04,2053.70,2205.32,2487.36,600.03,618.23,53.92,0000 0000 0000 0000 000000
2018-03-20 02:46:49,0.11,4.32,0.00,14.92,17.83,21.06,14.49,48.67,1025.50,2062.00,2052.39,2204.23,2485.97,599.74,617.85,53.97,0000 0000 0000 0000 000000
2018-03-20 02:51:51,0.12,4.33,0.00,14.95,17.88,21.10,14.54,48.60,1025.63,2062.00,2051.05,2203.13,2484.68,600.10,618.22,54.02,0000 0000 0000 0000 000000
2018-03-20 02:56:52,0.12,4.33,0.00,15.01,17.92,21.14,14.48,48.63,1025.73,2061.96,2049.68,2202.01,2483.47,599.90,618.02,54.07,0000 0000 0000 0000 000000
2018-03-20 03:01:54,0.09,4.34,0.00,15.05,17.97,21.18,14.46,48.66,1025.79,2061.73,2048.04,2200.91,2482.28,600.14,618.16,54.12,0000 0000 0000 0000 000000
2018-03-20 03:06:55,0.06,4.34,0.00,15.10,18.01,21.22,14.53,48.61,1025.85,2061.28,2046.75,2199.86,2480.98,600.08,618.06,54.17,0000 0000 0000 0000 000000
2018-03-20 03:11:56,0.11,4.35,0.00,15.14,18.06,21.27,14.41,48.63,1025.80,2061.05,2045.46,2198.78,2479.81,599.58,617.31,54.22,0000 0000 0000 0000 000000
2018-03-20 03:16:57,0.14,4.35,0.00,15.19,18.10,21.29,14.46,48.57,1025.76,2061.01,2043.81,2197.65,2478.54,599.81,617.50,54.27,0000 0000 0000 0000 000000
2018-03-20 03:21:59,0.12,4.36,0.00,15.25,18.14,21.35,14.48,48.65,1025.84,2061.00,2042.37,2196.59,2477.38,600.37,618.05,54.32,0000 0000 0000 0000 000000
2018-03-20 03:27:00,0.12,4.37,0.00,15.29,18.19,21.39,14.43,48.48,1025.87,2060.99,2041.25,2195.49,2475.93,599.79,617.44,54.37,0000 0000 0000 0000 000000
2018-03-20 03:32:02,0.12,4.37,0.00,15.33,18.23,21.43,14.44,48.60,1025.89,2060.91,2039.85,2194.41,2474.60,600.05,617.53,54.42,0000 0000 0000 0000 000000
2018-03-20 03:37:03,0.04,4.38,0.00,15.38,18.28,21.47,14.33,48.80,1025.89,2060.33,2038.51,2193.27,2473.35,599.62,617.00,54.47,0000 0000 0000 0000 000000
2018-03-20 03:42:04,0.10,4.38,0.00,15.43,18.32,21.51,14.31,48.46,1025.89,2060.03,2036.97,2192.24,2472.09,599.83,617.08,54.52,0000 0000 0000 0000 000000
2018-03-20 03:47:05,0.13,4.39,0.00,15.49,18.37,21.56,14.43,48.45,1025.89,2060.00,2035.51,2191.12,2470.77,600.12,617.28,54.57,0000 0000 0000 0000 000000
2018-03-20 03:52:06,0.12,4.40,0.00,15.53,18.41,21.61,14.40,48.40,1025.89,2059.99,2034.04,2190.03,2469.61,600.00,617.04,54.62,0000 0000 0000 0000 000000
2018-03-20 03:57:07,0.12,4.40,0.00,15.60,18.46,21.65,14.44,48.42,1025.89,2059.96,2032.68,2188.97,2468.36,600.08,617.03,54.67,0000 0000 0000 0000 000000
2018-03-20 04:02:09,0.07,4.41,0.00,15.65,18.51,21.70,14.38,48.24,1025.89,2059.72,2031.39,2187.94,2467.15,599.86,616.59,54.72,0000 0000 0000 0000 000000
2018-03-20 04:07:10,0.08,4.41,0.00,15.71,18.56,21.74,14.49,48.34,1025.89,2059.20,2029.89,2186.89,2465.97,600.00,616.64,54.78,0000 0000 0000 0000 000000
2018-03-20 04:12:11,0.12,4.42,0.00,15.77,18.60,21.78,14.40,48.34,1025.89,2059.03,2028.53,2185.78,2464.72,600.13,616.67,54.83,0000 0000 0000 0000 000000
2018-03-20 04:17:13,0.12,4.42,0.00,15.81,18.65,21.85,14.42,48.51,1025.89,2059.00,2027.16,2184.72,2463.52,600.20,616.46,54.88,0000 0000 0000 0000 000000
2018-03-20 04:22:14,0.13,4.43,0.00,15.86,18.70,21.87,14.43,48.48,1025.90,2058.99,2025.71,2183.66,2462.27,600.13,616.50,54.93,0000 0000 0000 0000 000000
2018-03-20 04:27:16,0.11,4.43,0.00,15.91,18.75,21.93,14.34,48.31,1025.93,2058.92,2024.37,2182.59,2460.98,599.80,616.12,54.98,0000 0000 0000 0000 000000
2018-03-20 04:32:17,0.10,4.44,0.00,15.95,18.81,21.97,14.36,48.24,1025.93,2058.64,2022.89,2181.48,2459.71,599.85,616.10,55.03,0000 0000 0000 0000 000000
2018-03-20 04:37:19,0.09,4.44,0.00,15.99,18.86,22.02,14.37,48.27,1025.96,2058.11,2021.38,2180.29,2458.35,600.06,616.08,55.08,0000 0000 0000 0000 000000
2018-03-20 04:42:20,0.16,4.45,0.00,16.04,18.91,22.10,14.40,48.26,1026.01,2058.01,2019.56,2178.90,2456.78,599.89,615.91,55.13,0000 0000 0000 0000 000000
2018-03-20 04:47:21,0.13,4.46,0.00,16.09,18.96,22.11,14.44,48.24,1026.05,2057.99,2018.18,2177.76,2455.48,600.31,616.29,55.18,0000 0000 0000 0000 000000
2018-03-20 04:52:22,0.17,4.47,0.00,16.13,19.02,22.16,14.31,48.29,1025.96,2057.97,2016.20,2176.47,2453.99,599.77,615.69,55.23,0000 0000 0000 0000 000000
2018-03-20 04:57:24,0.17,4.48,0.00,16.17,19.07,22.23,14.50,48.48,1026.11,2057.79,2013.74,2174.84,2452.19,600.34,616.15,55.28,0000 0000 0000 0000 000000
2018-03-20 05:02:25,0.05,4.48,0.00,16.22,19.11,22.29,14.28,48.34,1026.24,2057.19,2012.46,2173.72,2450.69,599.69,615.41,55.33,0000 0000 0000 0000 000000
2018-03-20 05:07:26,0.13,4.49,0.00,16.27,19.16,22.31,14.32,48.44,1026.30,2057.00,2010.90,2172.58,2449.42,599.82,615.43,55.38,0000 0000 0000 0000 000000
2018-03-20 05:12:27,0.12,4.49,0.00,16.32,19.21,22.37,14.38,48.43,1026.26,2057.00,2009.61,2171.50,2448.15,600.14,615.73,55.43,0000 0000 0000 0000 000000
2018-03-20 05:17:28,0.12,4.50,0.00,16.36,19.26,22.40,14.39,48.53,1026.26,2056.98,2008.24,2170.41,2446.85,600.00,615.63,55.48,0000 0000 0000 0000 000000
2018-03-20 05:22:29,0.12,4.51,0.00,16.41,19.31,22.45,14.35,48.48,1026.23,2056.81,2006.67,2169.25,2445.59,599.89,615.23,55.53,0000 0000 0000 0000 000000
2018-03-20 05:27:30,0.05,4.51,0.00,16.46,19.35,22.50,14.39,48.47,1026.21,2056.13,2005.04,2168.01,2444.17,600.18,615.40,55.58,0000 0000 0000 0000 000000
2018-03-20 05:32:32,0.15,4.51,0.00,16.50,19.40,22.55,14.29,48.42,1026.16,2056.01,2003.69,2166.86,2442.78,599.60,614.71,55.64,0000 0000 0000 0000 000000
2018-03-20 05:37:33,0.14,4.52,0.00,16.54,19.45,22.59,14.37,48.52,1026.01,2056.00,2002.20,2165.69,2441.51,600.10,615.02,55.69,0000 0000 0000 0000 000000
2018-03-20 05:42:34,0.14,4.53,0.00,16.58,19.49,22.65,14.38,48.61,1026.04,2055.98,2000.58,2164.53,2440.15,599.69,614.65,55.74,0000 0000 0000 0000 000000
2018-03-20 05:47:35,0.14,4.54,0.00,16.63,19.54,22.68,14.29,48.40,1026.02,2055.92,1998.95,2163.37,2438.71,599.89,614.67,55.79,0000 0000 0000 0000 000000
2018-03-20 05:52:36,0.06,4.54,0.00,16.67,19.58,22.74,14.42,48.38,1026.17,2055.29,1997.18,2162.03,2437.24,599.70,614.46,55.84,0000 0000 0000 0000 000000
2018-03-20 05:57:38,0.16,4.55,0.00,16.72,19.63,22.79,14.39,48.25,1026.23,2055.04,1995.48,2160.74,2435.75,600.27,614.86,55.89,0000 0000 0000 0000 000000
2018-03-20 06:02:39,0.16,4.56,0.00,16.76,19.67,22.82,14.37,48.27,1026.32,2055.00,1993.58,2159.45,2434.22,599.92,614.48,55.94,0000 0000 0000 0000 000000
2018-03-20 06:07:40,0.19,4.56,0.00,16.81,19.71,22.88,14.32,48.42,1026.13,2055.00,1991.43,2157.91,2432.60,599.82,614.18,55.99,0000 0000 0000 0000 000000
2018-03-20 06:12:41,0.19,4.58,0.00,16.85,19.75,22.92,14.35,48.28,1026.23,2054.98,1989.20,2156.29,2430.81,600.01,614.54,56.04,0000 0000 0000 0000 000000
2018-03-20 06:17:42,0.21,4.59,0.00,16.90,19.79,22.98,14.54,48.37,1026.34,2054.94,1986.94,2154.60,2428.93,600.56,615.12,56.09,0000 0000 0000 0000 000000
2018-03-20 06:22:43,0.07,4.59,0.00,16.94,19.83,23.02,14.42,48.36,1026.37,2054.42,1985.03,2153.14,2427.25,599.94,614.27,56.14,0000 0000 0000 0000 000000
2018-03-20 06:27:45,0.15,4.60,0.00,16.98,19.87,23.06,14.31,48.36,1026.38,2054.10,1983.30,2151.77,2425.68,599.75,614.01,56.19,0000 0000 0000 0000 000000
2018-03-20 06:32:46,0.16,4.61,0.00,17.02,19.91,23.10,14.38,48.40,1026.38,2054.02,1981.41,2150.42,2424.10,600.17,614.32,56.24,0000 0000 0000 0000 000000
2018-03-20 06:37:47,0.18,4.62,0.00,17.07,19.95,23.15,14.34,48.38,1026.38,2054.00,1979.42,2148.90,2422.45,599.78,613.80,56.29,0000 0000 0000 0000 000000
2018-03-20 06:42:48,0.18,4.62,0.00,17.11,19.99,23.19,14.27,48.43,1026.38,2053.99,1977.51,2147.55,2420.83,599.66,613.74,56.34,0000 0000 0000 0000 000000
2018-03-20 06:47:49,0.16,4.63,0.00,17.16,20.03,23.23,14.33,48.33,1026.37,2053.95,1975.54,2146.12,2419.20,600.05,613.97,56.39,0000 0000 0000 0000 000000
2018-03-20 06:52:50,0.16,4.64,0.00,17.20,20.07,23.27,14.33,48.47,1026.38,2053.76,1973.48,2144.71,2417.58,599.85,613.63,56.44,0000 0000 0000 0000 000000
2018-03-20 06:57:51,0.10,4.65,0.00,17.24,20.12,23.31,14.35,48.38,1026.38,2053.21,1971.49,2143.27,2415.98,600.08,613.83,56.49,0000 0000 0000 0000 000000
2018-03-20 07:02:53,0.16,4.66,0.00,17.28,20.16,23.36,14.25,48.29,1026.38,2053.04,1969.71,2141.84,2414.47,599.72,613.35,56.54,0000 0000 0000 0000 000000
2018-03-20 07:07:54,0.17,4.66,0.00,17.33,20.20,23.41,14.35,48.40,1026.37,2053.01,1967.91,2140.50,2412.83,599.78,613.20,56.59,0000 0000 0000 0000 000000
2018-03-20 07:12:55,0.17,4.67,0.00,17.37,20.24,23.44,14.34,48.36,1026.35,2053.00,1966.00,2139.11,2411.28,599.88,613.39,56.65,0000 0000 0000 0000 000000
2018-03-20 07:17:57,0.19,4.68,0.00,17.42,20.29,23.49,14.37,48.40,1026.35,2052.98,1964.10,2137.64,2409.57,600.03,613.34,56.70,0000 0000 0000 0000 000000
2018-03-20 07:22:58,0.14,4.69,0.00,17.47,20.33,23.53,14.30,48.40,1026.38,2052.85,1962.21,2136.31,2408.00,599.73,613.00,56.75,0000 0000 0000 0000 000000
2018-03-20 07:28:00,0.13,4.70,0.00,17.51,20.37,23.56,14.25,48.35,1026.38,2052.28,1960.05,2134.67,2406.26,599.92,613.03,56.80,0000 0000 0000 0000 000000
2018-03-20 07:33:01,0.19,4.71,0.00,17.55,20.41,23.62,14.32,48.38,1026.38,2052.05,1957.74,2133.02,2404.43,600.12,613.16,56.85,0000 0000 0000 0000 000000
2018-03-20 07:38:02,0.22,4.72,0.00,17.60,20.45,23.66,14.33,48.48,1026.30,2052.00,1955.38,2131.32,2402.45,600.34,613.35,56.90,0000 0000 0000 0000 000000
2018-03-20 07:43:04,0.22,4.73,0.00,17.64,20.50,23.70,14.37,48.72,1026.37,2052.00,1952.97,2129.61,2400.58,600.18,613.01,56.95,0000 0000 0000 0000 000000
2018-03-20 07:48:05,0.23,4.74,0.00,17.69,20.53,23.75,14.38,49.04,1026.38,2051.98,1950.52,2127.83,2398.57,599.54,612.33,57.00,0000 0000 0000 0000 000000
2018-03-20 07:53:06,0.20,4.75,0.00,17.73,20.57,23.79,14.36,48.61,1026.38,2051.94,1948.23,2126.16,2396.59,600.17,612.78,57.05,0000 0000 0000 0000 000000
2018-03-20 07:58:07,0.12,4.76,0.00,17.78,20.61,23.85,14.33,48.62,1026.38,2051.39,1946.10,2124.58,2394.77,599.51,611.98,57.10,0000 0000 0000 0000 000000
2018-03-20 08:03:09,0.17,4.77,0.00,17.83,20.66,23.88,14.28,48.51,1026.39,2051.03,1944.06,2122.97,2392.93,600.15,612.51,57.15,0000 0000 0000 0000 000000
2018-03-20 08:08:10,0.20,4.78,0.00,17.88,20.70,23.92,14.33,48.48,1026.38,2051.00,1941.93,2121.50,2391.18,599.98,612.32,57.20,0000 0000 0000 0000 000000
2018-03-20 08:13:12,0.19,4.79,0.00,17.93,20.74,23.96,14.38,48.52,1026.40,2051.00,1939.80,2119.89,2389.39,600.32,612.53,57.25,0000 0000 0000 0000 000000
2018-03-20 08:18:13,0.21,4.80,0.00,18.00,20.78,23.98,14.27,48.52,1026.44,2050.98,1937.58,2118.22,2387.57,600.24,612.42,57.30,0000 0000 0000 0000 000000
2018-03-20 08:23:14,0.26,4.81,0.00,18.07,20.82,24.01,14.29,48.45,1026.48,2050.94,1934.91,2116.31,2385.47,600.05,612.18,57.35,0000 0000 0000 0000 000000
2018-03-20 08:28:16,0.19,4.82,0.00,18.17,20.87,24.03,14.21,48.38,1026.53,2050.52,1931.99,2114.20,2383.09,599.68,611.50,57.40,0000 0000 0000 0000 000000
2018-03-20 08:33:17,0.23,4.83,0.00,18.29,20.91,24.04,14.25,48.30,1026.75,2050.04,1929.13,2112.10,2380.69,599.84,611.47,57.45,0000 0000 0000 0000 000000
2018-03-20 08:38:18,0.19,4.84,0.00,18.46,20.96,24.08,14.28,48.37,1026.87,2050.00,1926.95,2110.60,2378.76,599.89,611.20,57.51,0000 0000 0000 0000 000000
2018-03-20 08:43:19,0.18,4.85,0.00,18.63,21.00,24.12,14.32,48.34,1026.87,2050.00,1924.87,2109.13,2377.08,600.09,611.15,57.56,0000 0000 0000 0000 000000
2018-03-20 08:48:20,0.19,4.86,0.00,18.77,21.05,24.19,14.20,48.33,1026.87,2049.93,1922.81,2107.54,2375.29,600.01,610.79,57.61,0000 0000 0000 0000 000000
2018-03-20 08:53:22,0.11,4.87,0.00,18.86,21.10,24.26,14.21,48.23,1026.87,2049.42,1920.71,2105.98,2373.53,599.85,610.39,57.66,0000 0000 0000 0000 000000
2018-03-20 08:58:23,0.18,4.88,0.00,18.84,21.15,24.34,14.23,48.27,1026.87,2049.04,1918.64,2104.42,2371.71,599.78,610.36,57.71,0000 0000 0000 0000 000000
2018-03-20 09:03:24,0.22,4.89,0.00,18.74,21.19,24.42,14.24,48.39,1026.87,2049.00,1916.40,2102.68,2369.77,599.44,610.33,57.76,0000 0000 0000 0000 000000
2018-03-20 09:08:25,0.19,4.90,0.00,18.61,21.23,24.47,14.23,48.26,1026.66,2049.00,1914.35,2101.09,2367.93,599.96,610.98,57.81,0000 0000 0000 0000 000000
2018-03-20 09:13:27,0.19,4.91,0.00,18.53,21.28,24.52,14.29,48.26,1026.56,2048.98,1912.36,2099.57,2366.34,600.28,611.37,57.86,0000 0000 0000 0000 000000
2018-03-20 09:18:28,0.19,4.92,0.00,18.46,21.31,24.54,14.31,48.33,1026.61,2048.83,1910.22,2097.97,2364.59,599.96,611.25,57.91,0000 0000 0000 0000 000000
2018-03-20 09:23:29,0.15,4.93,0.00,18.42,21.35,24.60,14.32,48.46,1026.69,2048.31,1907.93,2096.28,2362.59,600.19,611.58,57.96,0000 0000 0000 0000 000000
2018-03-20 09:28:30,0.30,4.94,0.00,18.39,21.38,24.62,14.23,48.45,1026.80,2048.03,1904.73,2094.00,2360.03,599.95,611.47,58.01,0000 0000 0000 0000 000000
2018-03-20 09:33:31,0.27,4.96,0.00,18.37,21.41,24.65,14.25,48.30,1026.85,2048.00,1901.61,2091.79,2357.47,599.79,611.53,58.06,0000 0000 0000 0000 000000
2018-03-20 09:38:33,0.26,4.97,0.00,18.36,21.43,24.69,14.38,48.30,1026.86,2047.97,1899.00,2089.79,2355.18,600.02,611.67,58.11,0000 0000 0000 0000 000000
2018-03-20 09:43:34,0.26,4.98,0.00,18.34,21.45,24.71,14.35,48.16,1026.82,2047.93,1896.20,2087.84,2352.98,599.85,611.48,58.16,0000 0000 0000 0000 000000
2018-03-20 09:48:35,0.20,4.99,0.00,18.33,21.47,24.72,14.36,48.22,1026.71,2047.67,1893.50,2085.90,2350.83,600.14,611.79,58.21,0000 0000 0000 0000 000000
2018-03-20 09:53:36,0.18,5.00,0.00,18.32,21.49,24.76,14.29,48.27,1026.69,2047.29,1890.84,2084.26,2349.04,599.69,611.25,58.26,0000 0000 0000 0000 000000
2018-03-20 09:58:38,0.23,5.01,0.00,18.32,21.49,24.79,14.41,48.38,1026.86,2047.41,1888.40,2082.63,2347.31,600.01,611.69,58.31,0000 0000 0000 0000 000000
2018-03-20 10:03:39,0.27,5.03,0.00,18.32,21.51,24.81,14.31,48.39,1026.86,2047.35,1885.60,2080.62,2345.04,600.09,611.77,58.36,0000 0000 0000 0000 000000
2018-03-20 10:08:40,0.27,5.04,0.00,18.32,21.52,24.81,14.39,48.38,1026.86,2047.06,1882.53,2078.39,2342.53,600.25,612.03,58.41,0000 0000 0000 0000 000000
2018-03-20 10:13:41,0.29,5.06,0.00,18.31,21.54,24.84,14.36,48.49,1026.87,2047.03,1879.51,2076.28,2340.16,599.85,611.54,58.47,0000 0000 0000 0000 000000
2018-03-20 10:18:43,0.27,5.07,0.00,18.30,21.54,24.87,14.31,48.53,1026.87,2047.01,1876.53,2074.24,2337.88,599.98,611.73,58.52,0000 0000 0000 0000 000000
2018-03-20 10:23:44,0.29,5.08,0.00,18.31,21.56,24.89,14.26,48.48,1026.84,2047.00,1873.53,2072.19,2335.54,599.99,611.74,58.57,0000 0000 0000 0000 000000
2018-03-20 10:28:45,0.29,5.10,0.00,18.29,21.57,24.89,14.30,48.33,1026.60,2047.00,1870.54,2070.08,2333.17,599.90,611.37,58.62,0000 0000 0000 0000 000000
2018-03-20 10:33:46,0.28,5.11,0.00,18.29,21.59,24.91,14.38,48.33,1026.72,2047.00,1867.53,2067.96,2330.77,600.24,611.92,58.67,0000 0000 0000 0000 000000
2018-03-20 10:38:48,0.28,5.13,0.00,18.29,21.60,24.90,14.32,48.39,1026.65,2047.00,1864.59,2065.88,2328.51,600.06,611.79,58.72,0000 0000 0000 0000 000000
2018-03-20 10:43:49,0.27,5.14,0.00,18.29,21.62,24.93,14.28,48.38,1026.69,2047.00,1861.87,2063.88,2326.20,599.90,611.61,58.77,0000 0000 0000 0000 000000
2018-03-20 10:48:50,0.26,5.16,0.00,18.29,21.62,24.98,14.30,48.47,1026.68,2047.00,1859.38,2061.94,2323.87,599.85,611.56,58.82,0000 0000 0000 0000 000000
2018-03-20 10:53:52,0.24,5.17,0.00,18.29,21.63,24.98,14.44,48.33,1026.52,2047.00,1856.72,2060.02,2321.69,600.13,611.65,58.87,0000 0000 0000 0000 000000
2018-03-20 10:58:53,0.22,5.18,0.00,18.28,21.64,24.98,14.30,48.32,1026.41,2047.00,1854.58,2058.36,2319.73,599.98,611.44,58.92,0000 0000 0000 0000 000000
2018-03-20 11:03:54,0.23,5.19,0.00,18.28,21.64,25.00,14.34,48.32,1026.39,2047.00,1852.08,2056.72,2318.06,600.07,611.55,58.97,0000 0000 0000 0000 000000
2018-03-20 11:08:55,0.18,5.20,0.00,18.28,21.64,24.99,14.39,48.23,1026.40,2047.00,1849.88,2055.21,2316.30,600.22,611.75,59.02,0000 0000 0000 0000 000000
2018-03-20 11:13:57,0.26,5.21,0.00,18.26,21.64,24.99,14.35,48.34,1026.38,2046.99,1847.39,2053.55,2314.43,599.95,611.50,59.07,0000 0000 0000 0000 000000
2018-03-20 11:18:58,0.23,5.23,0.00,18.27,21.64,24.99,14.28,48.35,1026.38,2046.99,1845.03,2051.83,2312.55,599.66,611.09,59.12,0000 0000 0000 0000 000000
2018-03-20 11:23:59,0.24,5.24,0.00,18.25,21.65,25.01,14.33,48.45,1026.38,2046.99,1842.35,2050.19,2310.76,599.96,611.49,59.17,0000 0000 0000 0000 000000
2018-03-20 11:29:01,0.26,5.25,0.00,18.24,21.64,24.99,14.36,48.43,1026.39,2046.99,1839.64,2048.29,2308.71,599.40,610.98,59.22,0000 0000 0000 0000 000000
2018-03-20 11:34:02,0.19,5.27,0.00,18.24,21.65,25.05,14.28,48.48,1026.38,2046.99,1837.54,2046.83,2306.74,599.92,611.77,59.27,0000 0000 0000 0000 000000
2018-03-20 11:39:03,0.17,5.27,0.00,18.23,21.65,24.96,14.36,48.44,1026.38,2046.99,1835.78,2045.66,2305.35,600.31,611.72,59.32,0000 0000 0000 0000 000000
2018-03-20 11:44:05,0.20,5.29,0.00,18.22,21.65,24.98,14.44,48.38,1026.38,2046.99,1833.62,2044.30,2303.76,600.65,612.28,59.37,0000 0000 0000 0000 000000
2018-03-20 11:49:06,0.19,5.29,0.00,18.19,21.65,24.97,14.35,48.39,1026.38,2046.99,1831.78,2042.82,2302.18,599.89,611.55,59.43,0000 0000 0000 0000 000000
2018-03-20 11:54:08,0.23,5.31,0.00,18.19,21.65,25.01,14.48,48.59,1026.36,2046.99,1829.46,2041.26,2300.46,600.13,611.78,59.48,0000 0000 0000 0000 000000
2018-03-20 11:59:09,0.25,5.32,0.00,18.18,21.64,25.00,14.38,48.39,1026.35,2046.98,1826.96,2039.54,2298.51,600.21,611.86,59.53,0000 0000 0000 0000 000000
2018-03-20 12:04:10,0.23,5.33,0.00,18.15,21.64,25.01,14.34,48.48,1026.35,2046.98,1824.71,2037.83,2296.59,599.95,611.74,59.58,0000 0000 0000 0000 000000
2018-03-20 12:09:12,0.21,5.34,0.00,18.14,21.64,24.95,14.39,48.53,1026.31,2046.98,1822.41,2036.30,2294.78,600.32,612.19,59.63,0000 0000 0000 0000 000000
2018-03-20 12:14:13,0.22,5.35,0.00,18.14,21.64,25.00,14.37,48.42,1026.10,2046.99,1820.28,2034.74,2293.09,600.05,611.72,59.68,0000 0000 0000 0000 000000
2018-03-20 12:19:15,0.21,5.36,0.00,18.14,21.64,24.95,14.32,48.46,1025.92,2046.99,1818.04,2033.16,2291.30,599.78,611.35,59.73,0000 0000 0000 0000 000000
2018-03-20 12:24:16,0.21,5.37,0.00,18.12,21.64,24.93,14.38,48.42,1025.90,2046.98,1815.97,2031.67,2289.52,599.71,611.32,59.78,0000 0000 0000 0000 000000
2018-03-20 12:29:17,0.23,5.39,0.00,18.12,21.64,24.98,14.35,48.42,1025.90,2046.97,1813.72,2030.04,2287.68,599.87,611.38,59.83,0000 0000 0000 0000 000000
2018-03-20 12:34:19,0.22,5.40,0.00,18.09,21.63,24.95,14.37,48.53,1025.90,2046.99,1811.34,2028.51,2285.98,600.28,611.90,59.88,0000 0000 0000 0000 000000
2018-03-20 12:39:20,0.22,5.41,0.00,18.09,21.62,24.94,14.33,48.58,1025.90,2046.99,1809.22,2026.90,2284.16,600.24,611.86,59.93,0000 0000 0000 0000 000000
2018-03-20 12:44:21,0.24,5.42,0.00,18.06,21.62,24.99,14.35,48.63,1025.87,2046.99,1806.65,2025.25,2282.30,600.01,611.74,59.98,0000 0000 0000 0000 000000
2018-03-20 12:49:22,0.24,5.43,0.00,18.04,21.62,25.01,14.31,48.61,1025.83,2046.99,1804.27,2023.58,2280.47,599.90,611.58,60.03,0000 0000 0000 0000 000000
2018-03-20 12:54:24,0.21,5.45,0.00,18.03,21.60,24.93,14.33,48.60,1025.78,2046.99,1802.13,2022.01,2278.65,599.44,611.11,60.08,0000 0000 0000 0000 000000